Location: Newark
(21.1200°N, 73.4000°E)
Time: 13:38:35
(UTC+00:00)

Courier 1B Rocket - Pass Details

Date: 24 January 2020
Orbit: 920 x 1202 km, 28.2° (Epoch: 22 February)

Event Time Altitude Azimuth Distance (km) Brightness Sun altitude
Rises 04:31:20 0° 228° (SW) 4,055 8.2 32.5°
Reaches altitude 10° 04:34:23 10° 222° (SW) 3,067 7.7 33.0°
Maximum altitude 04:41:29 43° 153° (SSE) 1,517 7.9 34.2°
Drops below altitude 10° 04:48:10 10° 83° (E) 2,890 8.1 35.4°
Sets 04:50:56 0° 77° (ENE) 3,801 8.5 35.8°
